User: anonymous   Login
Location: Unspecified
(0.0000°N, 0.0000°E)
Time: 05:30:33
(UTC+00:00)
Language:

JAS-1B - Orbit

View from above orbital plane
View from above orbital plane
View from above satellite
View from above satellite

Ground track
Ground track

The orbit data is extracted from the following two-line orbital elements,

1 20480U 90013C   17177.83558215 -.00000034 +00000-0 -33060-5 0  9993
2 20480 099.0570 309.1992 0540383 009.2240 351.8323 12.83415536282914
Epoch (UTC): 26 June 2017 20:03:14
Eccentricity: 0.0540383
inclination: 99.0570°
perigee height: 911 km
apogee height: 1744 km
right ascension of ascending node: 309.1992°
argument of perigee: 9.2240°
revolutions per day: 12.83415536
mean anomaly at epoch: 351.8323°
orbit number at epoch: 28291

The dashed part of the orbit path shows where the satellite is in the earth's shadow,  

DLR